FW3337 Weather Reports


time (UTC)temp
F
wind
direction
speed
knots
gust
knots
rain 1hr
in
rain 24hr
in
rain mn
in
humidity
%
barometer
mb
20260504081505 34 267 0.0 0.0 0.00 0.00 0.00 92 1012.9
20260504044542 38 267 0.0 0.0 0.00 0.00 0.00 86 1012.3
20260504043042 38 267 0.0 0.0 0.00 0.00 0.00 85 1012.1
20260504041536 39 267 0.0 0.0 0.00 0.00 0.00 84 1012.0
20260504040033 39 267 0.0 0.0 0.00 0.00 0.00 82 1011.9
20260504034531 40 267 0.0 0.0 0.00 0.00 0.00 81 1011.9
20260504033029 40 267 0.0 0.0 0.00 0.00 0.00 80 1011.9
20260504031526 41 267 0.0 0.0 0.00 0.00 0.00 78 1012.0
20260504030027 42 267 0.0 0.0 0.00 0.00 0.00 76 1011.9
20260504024623 43 267 0.0 0.0 0.00 0.00 0.00 74 1012.0
20260504023022 44 267 0.0 0.0 0.00 0.00 0.00 71 1011.9
20260504021524 45 267 0.0 0.0 0.00 0.00 0.00 67 1012.0
20260504020019 46 267 0.0 0.0 0.00 0.00 0.00 64 1012.0
20260504014519 48 267 0.0 0.0 0.00 0.00 0.00 61 1011.7
20260504013031 49 267 0.0 0.0 0.00 0.00 0.00 57 1011.6
20260504011518 51 267 0.0 0.0 0.00 0.00 0.00 52 1011.4
20260504010017 53 267 0.0 0.9 0.00 0.00 0.00 49 1011.2
20260504004515 54 267 0.0 0.0 0.00 0.00 0.00 42 1011.0
20260504003033 55 267 0.0 6.1 0.00 0.00 0.00 39 1010.9
20260504001515 55 311 0.9 5.2 0.00 0.00 0.00 38 1010.6
20260504000014 56 329 1.7 5.2 0.00 0.00 0.00 37 1010.4
20260503234514 56 262 0.0 3.5 0.00 0.00 0.00 38 1010.3
20260503233014 57 270 0.0 5.2 0.00 0.00 0.00 35 1010.2
20260503231514 57 268 0.0 2.6 0.00 0.00 0.00 34 1010.0
20260503230013 57 305 1.7 8.7 0.00 0.00 0.00 33 1009.8
20260503224524 58 293 3.5 7.8 0.00 0.00 0.00 32 1009.9
20260503223011 58 270 1.7 5.2 0.00 0.00 0.00 31 1009.6
20260503221510 58 312 2.6 10.4 0.00 0.00 0.00 31 1009.6
20260503220017 58 296 2.6 12.2 0.00 0.00 0.00 30 1009.6
20260503214511 58 308 3.5 9.6 0.00 0.00 0.00 30 1009.6
20260503213011 58 6 0.9 7.8 0.00 0.00 0.00 30 1009.4
20260503211508 58 295 3.5 7.8 0.00 0.00 0.00 29 1009.5
20260503210007 57 253 3.5 17.4 0.00 0.00 0.00 30 1009.5
20260503204507 58 276 2.6 8.7 0.00 0.00 0.00 30 1009.5
20260503203005 57 293 1.7 11.3 0.00 0.00 0.00 31 1009.5
20260503201504 58 303 3.5 11.3 0.00 0.00 0.00 31 1009.6
20260503200004 58 344 3.5 11.3 0.00 0.00 0.00 31 1009.9
20260503194603 57 339 2.6 10.4 0.00 0.00 0.00 32 1009.7
20260503193057 56 288 3.5 9.6 0.00 0.00 0.00 32 1010.2
20260503191555 56 2 2.6 10.4 0.00 0.00 0.00 34 1010.2
20260503190055 56 245 6.1 13.0 0.00 0.00 0.00 35 1010.3
20260503184605 55 307 3.5 11.3 0.00 0.00 0.00 34 1010.3
20260503183052 54 339 5.2 12.2 0.00 0.00 0.00 36 1010.4
20260503181554 54 242 5.2 12.2 0.00 0.00 0.00 36 1010.7
20260503180047 54 262 3.5 12.2 0.00 0.00 0.00 37 1010.7
20260503174543 53 313 4.3 14.8 0.00 0.00 0.00 41 1010.6
20260503173041 53 10 1.7 10.4 0.00 0.00 0.00 41 1010.9
20260503171602 51 285 2.6 12.2 0.00 0.00 0.00 46 1011.2